CAPE
111 338 1183 1373 1469 1458 1525 1281 902 748 819 746 730 810 776 666 556 435 450 408 344 34 24 19 11 0 0 0 12 25 13 12 39 180 293 144 49 25 9 24 180 285 440
59 308 1133 1359 1503 1543 1519 1329 962 723 671 559 571 660 583 520 645 566 511 515 334 141 42 6 2 0 0 0 0 0 0 0 0 0 0 6 8 0 0 0 11 49 113
58 285 1010 1324 1431 1421 1360 1264 864 686 691 553 366 243 211 220 194 280 773 499 315 114 19 2 0 0 0 0 0 0 0 0 0 0 0 0 6 13 0 0 0 3 3
147 345 921 1198 1372 1363 1253 1097 777 683 704 601 406 262 212 209 379 584 694 431 172 101 23 1 0 0 0 0 0 0 0 0 0 0 0 8 71 70 18 0 0 0 0
134 395 796 1026 1336 1380 1340 1152 830 675 627 641 569 478 468 371 252 680 579 313 139 57 9 1 0 0 0 0 0 0 0 0 0 0 0 0 8 167 39 0 0 0 0
162 361 621 953 1244 1340 1282 1288 996 791 745 824 737 628 771 498 332 399 291 217 46 4 4 1 0 0 0 0 0 0 0 0 0 0 0 0 0 0 0 9 5 9 9
88 435 556 841 1125 1224 1226 1211 1154 1010 1004 1018 926 825 1023 610 410 255 125 25 2 1 0 0 0 0 0 0 0 0 0 0 0 0 0 0 0 0 0 0 0 2 15
0 281 470 684 992 1126 1212 1207 1087 968 937 898 837 889 817 566 266 95 0 0 0 0 0 1 0 0 0 0 0 0 0 0 0 0 0 0 0 0 0 0 0 0 2
67 206 383 511 769 1044 1123 1120 1027 944 856 750 731 765 677 618 490 52 0 0 0 0 0 1 0 0 0 0 0 0 0 0 0 0 0 0 0 0 0 0 0 0 0
0 58 175 367 586 855 1052 1107 1081 993 886 766 705 734 741 648 421 55 0 0 0 0 0 0 0 0 0 0 0 0 0 0 0 0 0 0 0 0 0 0 0 0 0
0 0 8 200 431 633 815 904 971 981 893 704 523 470 599 528 188 31 0 0 0 0 0 0 0 0 0 0 0 0 0 0 0 0 0 0 0 0 0 0 0 0 0
0 0 0 0 194 438 604 650 748 818 686 482 402 223 194 255 142 7 1 0 0 0 0 0 0 0 0 0 0 0 0 0 0 0 0 0 0 0 0 0 0 0 0
0 0 0 0 0 147 377 484 520 625 481 248 232 217 199 151 115 4 1 0 0 0 0 0 0 0 0 0 0 0 0 0 0 0 0 0 0 0 0 0 0 0 0
0 0 0 0 0 0 128 295 327 452 461 176 52 52 156 119 53 5 3 0 0 0 0 0 0 0 0 0 0 0 0 0 0 0 0 0 0 0 0 0 0 0 0
0 0 0 0 0 0 0 38 109 176 233 243 77 26 11 18 5 5 7 3 0 0 0 0 0 0 0 0 0 0 0 0 0 0 0 0 0 0 0 0 0 0 0
0 0 0 0 0 0 0 0 0 5 6 65 57 62 42 21 9 3 0 0 0 0 0 0 0 0 0 0 0 0 0 0 0 0 0 0 0 0 0 0 0 0 0
0 0 0 0 0 0 0 0 0 1 0 2 2 3 5 6 14 9 1 0 1 0 0 0 0 0 0 0 0 0 0 0 0 0 0 0 0 0 0 0 0 0 0
0 0 0 0 0 0 0 0 0 1 1 2 2 3 2 1 3 0 1 0 0 0 0 0 0 0 0 0 0 0 0 0 0 0 0 0 0 0 0 0 0 0 0
0 0 0 0 0 0 0 0 0 0 0 0 0 0 1 2 1 2 1 1 1 0 0 0 0 0 0 0 0 0 0 0 0 0 0 0 0 0 0 0 0 0 0
0 0 0 0 0 0 0 0 0 0 0 0 0 0 0 0 0 0 1 0 0 1 0 0 0 0 0 0 0 0 0 0 0 0 0 0 0 0 0 0 0 0 0
0 0 0 0 0 0 0 0 0 0 0 0 0 0 0 0 0 0 0 0 0 0 0 0 0 0 0 0 0 0 0 0 0 0 0 0 0 0 0 0 0 0 0
0 0 0 0 0 0 0 0 0 0 0 0 0 0 0 0 0 0 0 0 0 0 0 0 0 0 0 0 0 0 0 0 0 0 0 0 0 0 0 0 0 0 0
0 0 0 0 0 0 0 0 0 0 0 0 0 0 0 0 0 0 0 0 0 0 0 0 0 0 0 0 0 0 0 0 0 0 0 0 0 0 0 0 0 0 0
0 0 0 0 0 0 0 0 0 0 0 0 0 0 0 0 0 0 0 0 0 0 0 0 0 0 0 0 0 0 0 0 0 0 0 0 0 0 0 0 0 0 0
0 0 0 0 0 0 0 0 0 0 0 0 0 0 0 0 0 0 0 0 0 0 0 0 0 0 0 0 0 0 0 0 0 0 0 0 0 0 0 0 0 0 0
0 0 0 0 0 0 0 0 0 0 0 0 0 0 0 0 0 0 0 0 0 0 0 0 0 0 0 0 0 0 0 0 0 0 0 0 0 0 0 0 0 0 0
CIN
-370 -283 -42 -19 -9 -7 -1 -17 -45 -58 -46 -42 -38 -20 -18 -26 -34 -32 -16 -17 -21 -97 -117 -143 -174 -0 -0 -0 -134 -103 -96 -37 -57 -30 -10 -28 -39 -23 -7 -16 -3 -0 -0
-410 -322 -80 -23 -8 -4 -6 -18 -51 -69 -69 -73 -63 -38 -35 -34 -12 -7 -2 -5 -11 -37 -81 -147 -39 -0 -0 -0 -0 -0 -0 -0 -0 -0 -2 -65 -66 -0 -0 -0 -3 -27 -11
-440 -343 -126 -43 -17 -13 -13 -17 -50 -63 -63 -79 -99 -111 -114 -106 -98 -47 -0 -1 -14 -38 -88 -0 -0 -0 -0 -0 -0 -0 -0 -0 -0 -0 -0 -0 -71 -64 -0 -0 -0 -0 -0
-418 -319 -156 -78 -35 -20 -23 -32 -55 -61 -55 -58 -77 -98 -107 -100 -43 -3 -0 -2 -34 -59 -97 -0 -0 -0 -0 -0 -0 -0 -0 -0 -0 -0 -0 -51 -18 -30 -70 -0 -0 -0 -0
-449 -311 -180 -109 -44 -26 -26 -39 -64 -70 -69 -59 -58 -56 -43 -48 -67 -0 -0 -13 -73 -107 -113 -0 -0 -0 -0 -0 -0 -0 -0 -0 -0 -0 -0 -0 -28 -5 -50 -0 -0 -0 -0
-438 -335 -217 -114 -40 -19 -22 -24 -43 -56 -52 -33 -29 -31 -7 -27 -46 -16 -31 -54 -139 -2 -1 -0 -0 -0 -0 -0 -0 -0 -0 -0 -0 -0 -0 -0 -0 -2 -0 -0 -4 -2 -4
-455 -314 -245 -140 -58 -16 -8 -9 -12 -19 -10 -5 -2 -0 -0 -2 -11 -44 -99 -119 -0 -0 -0 -0 -0 -0 -0 -0 -0 -0 -0 -0 -0 -0 -0 -0 -0 -0 -0 -0 -0 -1 -5
-0 -365 -291 -202 -106 -46 -8 -2 -2 -2 -2 -2 -4 -2 -4 -9 -47 -115 -0 -0 -0 -0 -0 -0 -0 -0 -0 -0 -0 -0 -0 -0 -0 -0 -0 -0 -0 -0 -0 -0 -0 -0 -4
-499 -387 -304 -242 -152 -76 -45 -23 -10 -5 -8 -14 -10 -5 -3 -7 -15 -156 -0 -0 -0 -0 -0 -0 -0 -0 -0 -0 -0 -0 -0 -0 -0 -0 -0 -0 -0 -0 -0 -0 -0 -0 -0
-0 -488 -380 -277 -172 -77 -32 -19 -9 -6 -3 -4 -6 -5 -3 -15 -38 -140 -0 -0 -0 -0 -0 -0 -0 -0 -0 -0 -0 -0 -0 -0 -0 -0 -0 -0 -0 -0 -0 -0 -0 -0 -0
-0 -0 -349 -335 -216 -132 -65 -26 -9 -7 -7 -19 -36 -29 -12 -28 -82 -162 -0 -0 -0 -0 -0 -0 -0 -0 -0 -0 -0 -0 -0 -0 -0 -0 -0 -0 -0 -0 -0 -0 -0 -0 -0
-0 -0 -0 -0 -314 -201 -132 -88 -33 -6 -24 -45 -53 -81 -90 -75 -112 -31 -23 -0 -0 -0 -0 -0 -0 -0 -0 -0 -0 -0 -0 -0 -0 -0 -0 -0 -0 -0 -0 -0 -0 -0 -0
-0 -0 -0 -0 -0 -297 -190 -146 -113 -45 -55 -81 -70 -64 -71 -104 -121 -38 -48 -3 -0 -0 -0 -0 -0 -0 -0 -0 -0 -0 -0 -0 -0 -0 -0 -0 -0 -0 -0 -0 -0 -0 -0
-0 -0 -0 -0 -0 -0 -268 -164 -141 -82 -60 -116 -133 -120 -84 -103 -137 -30 -43 -3 -0 -0 -0 -0 -0 -0 -0 -0 -0 -0 -0 -0 -0 -0 -0 -0 -0 -0 -0 -0 -0 -0 -0
-0 -0 -0 -0 -0 -0 -0 -198 -167 -106 -74 -67 -132 -174 -31 -24 -30 -40 -37 -57 -4 -0 -0 -0 -0 -0 -0 -0 -0 -0 -0 -0 -0 -0 -0 -0 -0 -0 -0 -0 -0 -0 -0
-0 -0 -0 -0 -0 -0 -0 -0 -0 -63 -216 -132 -124 -136 -176 -116 -28 -36 -10 -0 -0 -0 -0 -0 -0 -0 -0 -0 -0 -0 -0 -0 -0 -0 -0 -0 -0 -0 -0 -0 -0 -0 -0
-0 -0 -0 -0 -0 -0 -0 -0 -0 -0 -0 -1 -0 -41 -44 -39 -34 -41 -34 -28 -60 -0 -0 -0 -0 -0 -0 -0 -0 -0 -0 -0 -0 -0 -0 -0 -0 -0 -0 -0 -0 -0 -0
-0 -0 -0 -0 -0 -0 -0 -0 -0 -0 -0 -0 -0 -0 -0 -0 -73 -0 -53 -0 -0 -0 -0 -0 -0 -0 -0 -0 -0 -0 -0 -0 -0 -0 -0 -0 -0 -0 -0 -0 -0 -0 -0
-0 -0 -0 -0 -0 -0 -0 -0 -0 -0 -0 -0 -0 -0 -0 -0 -0 -0 -0 -0 -0 -0 -0 -0 -0 -0 -0 -0 -0 -0 -0 -0 -0 -0 -0 -0 -0 -0 -0 -0 -0 -0 -0
-0 -0 -0 -0 -0 -0 -0 -0 -0 -0 -0 -0 -0 -0 -0 -0 -0 -0 -0 -0 -0 -0 -0 -0 -0 -0 -0 -0 -0 -0 -0 -0 -0 -0 -0 -0 -0 -0 -0 -0 -0 -0 -0
-0 -0 -0 -0 -0 -0 -0 -0 -0 -0 -0 -0 -0 -0 -0 -0 -0 -0 -0 -0 -0 -0 -0 -0 -0 -0 -0 -0 -0 -0 -0 -0 -0 -0 -0 -0 -0 -0 -0 -0 -0 -0 -0
-0 -0 -0 -0 -0 -0 -0 -0 -0 -0 -0 -0 -0 -0 -0 -0 -0 -0 -0 -0 -0 -0 -0 -0 -0 -0 -0 -0 -0 -0 -0 -0 -0 -0 -0 -0 -0 -0 -0 -0 -0 -0 -0
-0 -0 -0 -0 -0 -0 -0 -0 -0 -0 -0 -0 -0 -0 -0 -0 -0 -0 -0 -0 -0 -0 -0 -0 -0 -0 -0 -0 -0 -0 -0 -0 -0 -0 -0 -0 -0 -0 -0 -0 -0 -0 -0
-0 -0 -0 -0 -0 -0 -0 -0 -0 -0 -0 -0 -0 -0 -0 -0 -0 -0 -0 -0 -0 -0 -0 -0 -0 -0 -0 -0 -0 -0 -0 -0 -0 -0 -0 -0 -0 -0 -0 -0 -0 -0 -0
-0 -0 -0 -0 -0 -0 -0 -0 -0 -0 -0 -0 -0 -0 -0 -0 -0 -0 -0 -0 -0 -0 -0 -0 -0 -0 -0 -0 -0 -0 -0 -0 -0 -0 -0 -0 -0 -0 -0 -0 -0 -0 -0
-0 -0 -0 -0 -0 -0 -0 -0 -0 -0 -0 -0 -0 -0 -0 -0 -0 -0 -0 -0 -0 -0 -0 -0 -0 -0 -0 -0 -0 -0 -0 -0 -0 -0 -0 -0 -0 -0 -0 -0 -0 -0 -0
Wind_Speed
18 21 22 22 22 22 21 20 16 10 10 11 13 13 14 15 15 16 16 16 16 18 18 18 18 17 17 17 17 16 16 16 16 16 16 17 17 17 17 17 17 17 17
18 20 21 21 20 20 20 19 18 17 13 12 12 13 14 14 15 15 16 15 17 18 18 17 17 17 17 17 17 17 16 16 15 15 15 16 16 16 16 16 16 16 16
19 21 20 19 19 18 17 17 18 16 15 14 13 13 13 14 14 15 15 15 17 18 18 18 17 17 17 17 17 17 16 16 16 15 15 16 16 16 16 16 16 17 17
18 19 20 20 18 16 15 15 15 15 15 14 13 13 13 14 14 14 14 15 17 18 18 18 17 17 17 17 17 17 17 16 16 15 15 16 15 15 16 16 16 17 17
17 17 18 18 18 17 15 13 13 12 12 12 12 12 13 13 14 14 14 15 16 17 18 18 18 18 18 18 18 17 17 16 16 16 15 16 16 16 16 17 16 16 16
15 15 15 16 16 15 15 14 12 10 9 9 10 10 10 12 12 12 13 14 16 17 18 18 18 18 19 19 18 18 17 16 16 16 16 16 16 17 17 18 17 17 16
14 13 12 13 13 13 13 12 11 10 9 7 8 8 8 10 12 12 13 15 18 18 19 19 19 19 19 19 18 17 16 15 16 16 16 16 17 17 18 18 18 17 16
13 12 11 11 10 10 9 9 9 8 8 7 7 6 7 9 10 11 13 15 16 18 19 20 19 19 20 19 18 17 16 15 15 16 17 18 19 19 19 19 18 17 17
14 11 10 8 8 8 7 6 5 5 5 5 5 5 5 7 9 11 14 15 16 18 19 19 19 20 20 20 18 17 16 15 15 16 17 18 19 19 19 19 18 18 18
15 11 9 8 5 5 3 3 2 2 3 4 7 6 6 7 7 9 12 15 17 17 18 19 19 20 20 20 19 18 17 17 17 18 18 19 19 19 19 19 19 19 19
22 19 14 8 6 3 2 1 0 2 5 6 8 11 11 13 10 10 12 14 16 17 17 18 18 20 20 20 20 20 19 19 19 20 20 21 21 20 20 20 20 20 20
28 27 25 19 9 6 6 6 3 4 5 10 13 15 15 14 12 12 13 15 17 17 17 18 18 18 20 20 20 21 20 21 21 21 21 22 22 22 21 21 22 22 21
26 26 27 26 23 10 8 8 9 8 11 13 13 15 18 19 17 14 15 16 17 17 18 19 19 19 20 20 20 21 21 21 21 22 23 23 23 23 22 22 22 21 21
27 27 28 27 25 15 11 10 11 9 10 13 15 15 16 17 17 16 17 18 19 19 20 20 21 21 21 21 21 21 22 22 22 22 23 24 24 24 24 23 22 22 22
28 29 29 28 27 21 11 12 13 15 15 15 15 17 16 16 17 16 16 17 19 20 21 22 22 23 23 23 23 23 23 23 23 23 23 24 25 25 25 24 23 23 22
28 29 29 28 27 21 13 13 15 16 18 19 19 21 21 19 18 18 18 17 19 20 21 22 22 23 25 25 26 26 26 25 25 25 25 25 25 25 25 25 23 23 23
27 27 27 27 26 20 14 13 15 17 19 21 22 23 23 22 21 20 20 22 22 22 23 23 22 23 25 26 27 28 28 28 28 28 27 26 26 26 26 25 25 25 24
26 27 27 25 23 20 16 14 15 16 18 20 21 22 24 24 24 24 24 25 25 24 24 24 25 26 26 27 28 29 28 28 29 29 29 28 28 27 27 26 26 26 27
25 25 24 24 23 20 18 16 16 17 18 20 21 23 24 25 25 24 26 28 28 28 27 26 27 27 28 29 30 31 31 31 30 30 30 31 30 30 29 29 28 28 28
24 24 23 22 21 20 19 18 18 18 19 20 21 23 24 24 25 24 25 26 27 28 29 29 29 28 30 32 33 34 33 33 33 33 32 31 30 30 31 31 31 30 30
23 24 24 23 22 20 19 18 20 20 20 21 22 24 24 25 24 25 25 26 26 26 27 27 27 29 30 31 34 35 35 34 35 36 35 35 34 33 32 31 32 32 32
22 23 23 23 23 22 21 19 18 18 21 21 22 24 25 26 26 26 25 26 27 27 28 29 30 31 30 30 33 36 39 37 33 31 32 32 35 35 35 35 34 34 34
21 21 22 22 22 22 21 19 19 20 21 22 25 25 27 27 27 27 27 27 28 28 29 30 30 31 33 32 31 32 36 37 40 34 36 35 34 34 35 35 36 36 35
19 19 20 21 21 22 21 21 21 21 22 23 23 24 26 28 28 29 29 28 29 29 30 31 31 31 32 35 33 30 32 35 39 44 33 39 39 39 38 37 36 36 35
17 18 19 20 21 21 21 21 21 22 22 23 25 26 28 29 30 31 31 30 30 30 31 32 33 33 32 34 35 35 35 34 35 39 49 40 41 41 41 42 41 41 39
16 17 18 19 21 21 21 22 22 23 25 26 28 29 30 30 31 32 32 32 32 32 33 34 33 34 34 35 35 36 37 38 39 41 45 48 49 43 42 42 42 43 42
Wind_Direction
139 131 132 126 126 120 119 112 89 31 9 15 20 20 22 23 27 24 22 26 17 1 358 358 355 352 352 354 356 357 353 354 355 359 3 11 8 6 4 359 357 359 359
116 125 128 127 124 121 117 111 104 96 63 27 26 26 24 17 10 12 19 29 11 5 5 355 347 345 345 348 351 355 357 355 353 350 348 353 2 0 359 354 349 351 350
111 126 127 125 123 120 113 112 113 105 95 77 54 39 26 18 12 9 30 23 15 8 8 354 344 343 341 341 339 340 343 338 345 346 345 346 354 356 350 347 344 346 347
106 121 130 131 127 122 117 114 110 106 99 82 62 44 30 20 15 14 19 13 6 358 354 351 345 338 332 330 331 331 332 338 343 347 340 336 338 353 351 343 340 340 342
97 114 129 134 134 133 125 117 110 103 90 79 66 54 36 21 15 19 13 2 358 348 347 344 337 332 327 325 327 330 333 341 347 352 345 338 339 344 347 347 347 343 345
82 104 120 133 137 135 132 126 118 98 82 73 62 55 44 20 22 31 23 10 353 343 331 329 330 327 321 320 326 330 336 339 343 344 342 340 342 341 340 340 344 342 344
74 87 103 123 131 134 135 128 124 120 105 76 52 55 48 23 14 7 0 348 331 329 323 322 324 324 322 324 329 332 337 342 339 337 335 332 332 333 334 332 329 330 337
69 81 90 118 127 132 131 130 130 125 117 110 96 69 36 15 12 4 351 343 344 337 333 321 324 324 323 322 326 334 340 345 341 337 329 325 322 326 325 327 326 327 327
46 66 71 90 122 134 136 133 125 117 109 102 94 79 59 26 5 350 342 339 338 332 331 332 329 324 321 321 324 328 335 337 340 336 333 328 324 327 329 329 329 326 327
21 39 53 56 79 112 111 131 102 38 18 5 353 359 7 5 7 359 342 333 331 331 331 328 327 325 325 325 322 325 328 327 326 324 325 324 324 327 328 328 328 326 323
332 341 355 17 31 64 98 87 99 341 333 334 333 328 330 327 336 339 338 335 332 329 330 330 330 326 326 321 321 320 320 320 319 318 319 318 319 322 322 323 321 319 322
309 306 313 326 345 350 347 342 335 333 328 323 319 315 316 320 323 324 323 326 326 327 330 328 328 329 324 321 318 318 318 317 317 316 317 316 317 318 318 318 316 314 316
328 320 312 309 310 327 328 328 325 320 317 318 317 313 310 310 314 317 317 317 318 324 323 324 325 325 323 321 319 318 318 318 317 317 316 315 315 316 317 317 317 316 316
327 325 322 317 313 320 319 319 322 319 316 313 313 316 312 312 311 311 311 311 312 314 316 317 316 317 317 317 316 316 316 317 317 318 317 317 315 314 314 314 316 316 316
330 326 322 320 317 316 315 316 318 319 318 315 312 311 314 311 310 310 311 310 310 310 310 312 312 311 310 309 308 308 309 311 313 315 316 316 317 316 315 315 316 316 317
330 328 327 328 324 326 322 317 318 320 320 319 316 311 307 308 307 306 305 306 310 308 309 311 310 309 307 306 305 304 304 305 307 308 310 311 312 314 314 314 316 316 315
339 338 336 333 336 344 341 331 326 324 323 321 317 314 314 311 309 308 307 305 305 305 305 306 308 308 307 306 304 303 302 302 302 302 304 306 308 309 311 313 314 312 313
345 343 344 349 351 356 358 353 346 339 335 330 329 328 323 317 312 309 307 307 307 306 305 303 303 302 302 303 303 303 302 301 301 301 301 302 303 305 306 307 308 309 309
353 353 356 358 4 11 16 13 4 356 349 341 338 333 329 328 324 319 315 311 310 308 306 304 303 301 301 301 300 300 300 300 300 300 299 298 299 300 301 302 303 305 305
357 360 3 5 8 13 16 16 13 8 358 353 349 346 343 338 334 329 325 322 319 315 312 309 304 303 301 300 301 298 299 298 297 296 296 297 297 297 297 298 299 301 301
5 7 8 8 5 8 7 4 1 1 1 358 355 350 348 346 343 340 334 330 328 326 321 319 314 309 306 308 303 301 299 298 296 295 294 293 293 294 294 295 296 297 298
6 8 12 12 14 15 15 15 13 11 11 6 357 355 350 347 344 342 340 336 334 328 325 320 316 311 309 310 305 304 298 298 299 301 300 297 294 293 291 292 292 293 294
11 11 9 10 11 13 14 16 12 6 2 357 353 352 351 350 348 345 343 339 333 330 326 324 321 316 310 311 311 305 301 297 300 299 296 298 298 296 296 293 290 290 291
10 10 12 10 9 7 7 7 6 1 356 352 352 353 351 351 349 347 345 341 338 334 329 325 323 320 315 310 310 309 304 302 298 295 299 297 295 293 293 293 292 292 291
6 8 8 7 6 3 2 0 358 356 353 350 346 345 344 344 345 343 341 340 338 337 334 330 325 321 318 313 310 308 306 304 301 297 292 296 297 294 292 290 290 290 290
358 360 359 359 358 357 355 352 350 346 343 341 340 339 337 337 338 339 340 338 336 333 330 328 327 325 321 317 313 310 306 302 300 298 295 293 290 295 295 292 290 288 287